Theta_e
361 361 364 357 338 328 317 317 323 322 325 331 335 332 328 333 324 316 340 348 350 352 358 361 367 367 363 365 364 365 361 363 362 362 360 361 361 361 359 360 360 361 358 358 361 360 360 360 361
364 364 363 350 328 314 315 323 321 325 329 333 336 336 328 321 329 332 338 348 349 349 352 357 366 366 365 364 364 366 363 363 362 363 362 361 360 360 361 361 361 361 360 357 362 361 360 359 359
365 367 349 342 322 313 315 321 324 327 330 331 331 338 330 323 331 335 344 348 348 350 354 358 367 367 365 365 364 364 363 362 362 363 361 360 360 360 360 360 361 360 360 360 358 359 360 360 360
360 358 351 324 317 320 322 325 325 327 328 330 334 331 330 335 334 341 345 347 347 353 353 363 366 365 364 364 363 362 361 362 361 361 361 361 362 362 361 361 361 360 360 359 358 358 357 358 360
356 348 326 319 318 323 326 329 329 325 327 330 334 327 328 337 338 343 344 345 349 353 357 363 367 365 367 366 365 365 363 361 361 362 363 360 360 360 362 360 360 359 359 360 359 359 357 358 356
341 341 317 313 320 324 328 330 327 328 328 331 332 330 333 338 337 342 344 343 352 352 353 358 366 368 366 363 365 363 361 361 362 361 362 362 360 361 358 361 359 359 358 358 358 358 357 356 356
334 328 319 318 319 322 327 331 329 328 327 328 334 329 333 333 337 342 344 344 347 348 353 358 359 362 364 364 364 363 361 363 363 362 361 361 360 360 360 360 359 355 358 359 359 358 357 356 356
335 327 320 321 318 321 329 330 331 329 327 335 338 327 328 334 339 341 342 343 345 348 351 358 361 360 353 357 364 363 364 361 358 358 360 360 360 360 358 358 356 354 354 355 357 359 357 356 356
334 322 316 319 321 324 331 329 333 334 331 334 336 335 337 340 342 341 339 340 344 347 347 351 354 354 351 358 363 362 360 360 361 361 363 363 361 359 360 361 357 356 354 354 356 358 359 359 359
325 321 320 325 326 326 330 331 332 331 332 332 333 337 339 340 340 339 338 337 340 344 345 347 350 349 351 351 358 359 357 360 362 361 361 363 360 362 360 358 359 357 358 357 357 357 358 358 353
324 319 325 326 328 329 329 329 333 331 328 332 331 335 336 337 338 338 339 339 341 344 346 344 349 351 352 354 360 360 357 357 359 366 364 360 363 364 357 358 356 356 357 356 357 355 355 356 353
321 324 326 328 330 327 326 331 329 330 330 337 338 337 337 337 337 337 338 340 342 346 346 346 351 358 355 354 352 355 349 355 355 353 365 361 360 355 361 359 362 360 360 361 358 353 351 349 354
324 323 327 330 330 329 330 328 329 330 335 339 340 337 336 336 337 338 340 341 345 344 347 349 356 363 368 367 362 351 352 355 356 357 356 359 359 357 363 353 360 361 362 360 358 356 353 351 348
326 323 326 327 329 328 327 328 331 332 337 337 337 335 335 335 336 337 338 339 343 345 346 347 352 361 361 367 368 365 364 354 356 359 357 357 366 360 360 357 363 364 361 359 360 357 357 354 353
325 320 324 324 326 327 330 321 322 330 337 335 335 335 334 335 336 336 337 339 341 343 346 348 351 355 363 363 364 362 363 352 362 357 362 367 371 365 365 365 363 361 355 362 360 360 358 354 352
321 321 315 324 327 327 328 314 323 329 335 334 335 335 334 334 334 337 338 340 343 340 348 353 345 352 357 360 363 358 358 356 360 365 365 360 355 361 366 365 365 353 364 358 360 360 354 354 349
319 313 316 319 326 326 324 316 324 331 333 334 334 334 334 333 335 338 339 342 344 349 350 350 350 348 355 365 363 362 357 364 355 367 358 358 355 354 365 363 357 362 361 361 363 362 358 353 348
313 313 316 316 322 322 319 321 330 333 333 333 335 335 336 333 334 340 342 345 348 353 355 351 350 361 358 361 365 363 361 363 368 367 367 361 358 367 367 364 363 355 361 360 361 359 359 358 355
317 316 315 318 322 318 318 320 326 332 332 333 334 335 334 335 338 341 344 347 347 352 355 354 356 366 359 357 354 355 354 360 363 357 358 353 372 367 369 363 366 366 358 359 358 358 349 350 351
317 315 314 319 323 321 318 317 327 329 331 332 333 335 336 337 338 342 344 345 346 349 355 356 358 365 363 359 360 359 357 361 366 357 360 362 370 367 363 368 360 363 355 356 358 355 351 349 353
316 314 315 314 319 320 320 315 319 324 322 328 333 336 338 338 336 338 342 344 347 349 353 356 360 366 363 367 364 369 372 369 367 365 366 366 366 365 366 365 363 355 358 349 355 351 352 344 348
312 318 317 316 314 311 318 307 319 320 320 324 324 332 335 338 339 339 340 341 344 349 356 358 360 364 364 368 366 368 360 360 359 363 363 366 367 364 364 362 357 358 356 353 349 349 347 346 338
313 318 316 315 313 313 312 309 316 320 316 321 322 328 334 338 339 339 340 342 344 348 350 360 361 364 366 365 368 363 363 356 361 357 363 368 367 364 356 356 358 355 353 357 352 353 350 345 343
316 313 313 314 313 306 310 309 311 315 319 322 324 329 331 337 338 339 341 344 344 349 351 355 363 363 366 367 367 367 365 360 353 358 361 360 362 361 357 356 358 360 356 354 353 355 352 349 350
312 309 302 302 303 302 311 309 312 318 321 323 325 329 333 336 337 339 340 341 343 345 349 355 362 364 364 368 365 366 369 366 365 362 359 362 356 348 357 359 358 356 357 356 357 355 352 350 348
309 309 303 298 300 303 311 306 312 322 324 326 329 328 331 334 338 339 341 345 345 345 350 354 361 363 365 364 366 368 371 362 366 365 351 351 351 352 360 359 359 358 356 356 356 349 350 350 347
308 306 312 305 306 303 306 312 318 320 319 324 324 328 329 333 336 338 341 342 347 348 352 356 360 363 363 362 366 368 367 368 361 365 351 354 355 355 358 359 358 358 358 357 358 353 347 347 345
309 312 305 306 299 298 303 309 309 316 317 323 324 326 328 327 334 338 341 343 349 350 352 356 362 363 362 362 364 365 367 369 370 367 365 359 359 358 359 358 354 357 357 356 354 351 348 345 341
307 305 307 308 306 301 299 304 315 318 319 318 322 328 329 329 329 338 341 345 350 352 352 354 360 362 360 362 362 365 364 365 369 362 360 359 360 361 359 359 358 354 351 351 349 348 343 341 339
311 308 308 302 303 307 306 307 320 320 321 322 323 328 329 331 331 338 341 345 348 352 354 355 358 359 359 360 363 364 364 364 360 359 355 360 360 361 359 357 354 350 349 349 344 340 340 336 330
Wind_Speed
11 11 9 6 5 1 11 14 13 6 17 13 14 14 19 12 6 13 21 24 23 20 17 16 14 14 14 13 13 12 14 13 11 11 11 10 10 9 7 8 8 8 9 7 8 8 10 8 10
13 9 4 6 4 11 12 15 15 14 12 12 16 22 11 19 20 23 18 24 23 19 17 15 13 15 15 14 12 13 12 11 11 12 10 10 8 8 7 9 9 9 8 8 9 10 9 9 8
14 14 7 6 10 9 12 13 12 11 10 8 11 14 15 21 21 15 21 25 23 19 18 15 15 13 14 13 12 12 11 11 10 11 10 7 7 7 8 8 8 7 7 7 8 7 8 7 8
8 8 7 3 13 15 12 10 30 15 14 7 19 13 21 16 21 22 22 22 21 21 19 15 15 15 14 13 12 11 10 9 9 9 9 7 7 8 8 8 8 6 8 7 7 6 6 6 8
9 8 3 8 14 14 9 6 18 16 16 16 23 20 18 17 22 19 19 17 23 21 17 15 15 15 14 13 11 12 10 9 8 8 9 7 7 7 8 7 8 5 6 6 5 6 5 5 5
8 6 5 7 17 14 12 7 3 17 16 17 19 15 13 18 19 17 18 15 24 19 18 15 14 14 12 12 12 10 9 9 8 7 7 7 7 7 6 6 6 4 5 5 4 5 5 4 3
12 8 16 16 13 15 8 16 14 14 15 14 19 16 14 18 18 15 17 15 20 19 17 14 13 12 12 11 10 10 8 7 8 7 6 7 6 6 6 6 5 4 4 5 6 5 4 4 4
3 7 7 10 14 13 11 7 16 14 12 10 17 11 17 19 17 15 15 15 17 20 16 12 12 12 10 10 10 10 8 7 5 6 5 5 6 6 6 6 5 5 4 5 5 5 5 6 6
19 6 8 12 16 10 5 12 9 12 6 11 4 16 22 21 19 18 16 15 13 16 17 15 15 12 12 12 11 10 8 7 7 7 7 4 3 5 7 7 8 6 5 4 5 7 8 8 10
8 2 13 8 11 13 8 11 8 9 9 7 18 23 22 20 17 16 17 15 14 14 16 15 16 14 13 11 11 10 10 9 8 8 8 5 5 4 2 6 11 10 9 7 7 8 9 9 7
4 7 10 12 10 13 7 9 3 8 10 12 17 19 20 17 16 14 18 17 13 12 8 11 13 11 17 7 8 7 7 6 7 9 9 7 4 2 3 3 5 5 8 4 6 5 5 4 6
3 2 7 8 1 4 11 4 13 10 5 15 17 19 19 18 17 15 14 17 15 12 12 9 13 9 14 11 8 5 4 7 5 6 4 5 4 5 2 3 3 3 3 3 2 2 3 4 8
16 3 11 8 5 7 4 6 9 8 10 14 17 18 19 17 16 15 14 14 16 10 9 11 13 6 1 2 2 3 7 3 7 4 7 4 6 4 3 7 7 4 4 5 5 5 4 4 5
9 8 6 7 11 5 4 6 5 10 11 14 16 17 17 17 16 14 14 15 14 12 11 10 12 9 5 2 5 4 2 6 6 7 9 12 4 4 6 7 4 2 2 5 4 3 3 3 3
4 10 7 9 11 12 16 9 10 16 10 14 16 16 17 16 15 14 13 15 13 12 13 11 9 12 7 6 3 4 4 6 4 6 8 6 1 4 4 3 2 3 6 5 2 4 4 5 5
10 14 7 8 13 14 9 2 23 15 12 14 15 14 15 16 16 13 12 14 12 10 13 9 11 15 10 8 7 6 5 5 2 2 4 11 11 16 4 4 1 4 4 5 2 3 4 4 4
15 11 5 14 15 15 11 8 29 20 19 15 15 14 14 15 15 13 13 13 14 9 12 8 8 12 14 7 5 6 6 4 3 2 6 8 9 16 4 5 7 6 4 5 3 2 2 3 2
16 7 18 12 13 9 13 22 24 23 19 16 16 15 14 15 17 16 15 15 15 9 10 9 8 5 12 7 4 4 5 4 2 1 5 2 6 7 4 1 3 3 3 3 2 2 3 4 5
17 21 24 16 4 3 8 11 17 17 18 18 17 16 16 17 17 19 16 16 17 12 11 10 9 6 8 8 7 6 6 4 2 9 7 19 2 4 4 3 2 3 4 3 3 2 5 4 4
22 15 12 8 17 17 9 12 13 18 17 17 18 19 18 17 19 19 16 18 19 17 12 10 7 8 6 5 6 6 3 3 5 6 11 0 1 4 7 3 4 5 4 5 3 3 3 3 4
20 16 10 10 9 18 18 16 17 9 21 29 14 21 21 19 19 20 21 17 17 19 18 14 11 8 7 7 5 3 1 3 2 3 2 2 2 5 5 2 5 5 4 4 4 6 6 4 3
19 12 11 18 12 11 14 13 9 9 15 21 19 15 21 21 20 21 22 20 18 16 19 17 14 12 10 8 6 6 4 3 4 3 3 2 4 4 4 5 5 4 3 6 6 6 5 5 5
12 17 15 18 16 18 15 11 9 19 7 2 28 26 18 22 22 20 22 21 18 17 15 15 16 13 11 9 8 6 6 6 6 6 7 5 4 2 7 6 5 4 4 5 5 4 5 5 5
14 16 19 18 11 13 16 16 6 14 15 21 19 14 39 23 21 19 18 20 16 17 16 16 16 13 12 11 8 6 6 7 2 6 4 4 4 4 6 6 4 4 5 4 4 4 5 3 3
16 14 12 11 12 12 19 17 12 12 18 13 17 30 20 20 21 19 17 17 17 18 17 15 16 14 14 11 10 9 7 6 6 6 5 4 5 5 5 4 5 5 3 3 3 4 3 5 4
16 14 12 14 13 16 19 9 8 15 11 17 15 15 10 16 18 19 17 13 19 19 17 17 16 14 14 13 10 8 7 6 3 5 10 12 6 8 6 5 4 6 4 3 4 1 3 5 4
15 15 15 18 20 16 9 1 7 9 6 22 13 14 9 5 16 18 19 16 19 17 17 17 17 15 14 12 9 9 8 7 7 10 18 6 10 8 6 6 5 5 5 4 4 3 6 4 5
13 17 13 10 15 16 15 4 3 3 14 24 10 14 10 12 15 18 17 17 18 18 17 17 16 16 16 15 11 10 9 7 5 7 6 8 10 10 7 5 7 4 6 5 5 3 6 5 4
10 13 15 13 12 11 11 5 13 17 5 11 13 25 15 9 9 11 13 16 19 18 18 16 17 16 15 15 13 11 10 9 5 7 6 9 11 9 8 7 3 8 7 7 6 5 6 6 7
11 11 13 10 13 14 13 5 6 14 8 13 17 17 19 12 28 10 15 16 18 17 16 16 17 16 15 13 11 11 10 10 9 9 8 9 9 9 8 7 8 8 6 5 6 6 6 7 7
Wind_Direction
194 209 224 268 245 189 93 84 124 45 70 60 96 69 57 89 110 105 152 114 125 123 128 128 128 122 119 118 128 125 122 120 122 114 104 108 104 105 113 103 99 100 87 95 96 88 94 88 92
227 242 228 275 262 71 65 66 58 62 73 106 67 74 74 85 109 124 115 121 121 133 130 130 123 126 129 130 127 121 122 121 116 105 102 103 112 108 104 94 90 90 92 94 84 89 93 96 94
241 255 266 234 56 23 79 59 99 80 45 88 88 56 96 114 123 114 126 128 133 139 116 128 130 128 129 123 116 115 113 112 109 110 111 119 124 121 102 93 90 95 93 91 93 93 99 104 102
244 200 262 80 61 75 71 76 346 116 105 53 108 80 100 107 111 124 133 128 138 116 121 134 130 126 124 120 122 129 125 125 123 120 123 115 105 107 103 99 102 100 91 101 102 103 102 106 106
240 294 63 40 64 88 62 32 154 85 53 49 99 105 108 94 118 132 131 141 120 115 127 130 131 130 128 131 129 125 121 127 122 108 140 127 113 105 109 115 99 121 115 117 119 114 103 110 125
348 159 97 263 75 64 73 36 181 96 98 96 103 118 106 115 134 142 144 143 115 126 129 136 132 129 140 141 137 133 141 136 118 112 110 120 123 122 117 121 123 128 131 131 136 137 139 146 143
189 310 97 77 72 70 21 47 36 93 102 110 113 119 129 136 139 152 138 147 120 133 127 136 140 140 145 141 143 140 142 131 137 136 140 154 137 151 143 148 147 148 151 141 155 163 174 186 187
321 150 107 119 81 69 73 63 47 78 81 102 114 138 151 143 151 157 137 130 139 126 141 151 145 151 159 156 153 150 136 140 152 164 174 181 177 177 181 174 184 181 186 182 181 191 202 218 228
20 327 58 33 91 95 68 81 58 106 102 54 112 146 143 148 159 162 148 133 143 140 148 160 157 164 164 151 148 147 155 169 185 196 196 198 219 195 209 196 170 192 198 216 219 215 228 233 238
142 71 71 14 71 105 79 83 133 113 129 116 86 115 139 158 165 162 151 141 159 140 160 162 162 162 170 157 154 166 175 189 195 195 167 191 221 180 180 207 188 198 213 219 224 236 248 250 256
18 57 69 64 358 65 129 81 120 166 127 135 132 139 152 162 168 174 153 152 158 152 165 153 146 158 129 140 189 174 179 190 187 162 168 188 219 171 223 177 190 195 215 225 192 227 240 261 235
111 34 65 87 354 83 64 156 67 55 48 117 138 148 159 167 173 173 169 155 144 170 155 193 143 139 144 174 184 149 213 183 146 177 190 143 222 195 237 316 180 191 166 208 156 220 270 300 302
342 21 116 116 181 107 154 54 101 97 96 118 137 154 163 174 175 176 168 150 145 187 177 151 117 123 70 71 238 170 195 150 152 143 62 218 212 175 144 219 260 178 169 202 200 200 209 243 283
200 271 116 173 135 144 152 81 35 130 126 133 148 161 168 179 179 168 169 155 156 180 172 165 145 134 168 197 322 329 349 132 165 155 175 223 188 181 213 211 237 207 220 230 227 223 183 206 251
252 258 243 179 175 154 86 8 314 300 146 153 162 170 170 181 179 166 173 155 168 180 160 163 177 150 177 187 195 280 293 238 166 178 179 203 44 80 315 315 306 335 214 225 252 258 219 231 233
247 257 240 165 261 127 113 229 285 260 198 172 170 176 170 175 176 165 175 155 164 176 150 163 189 154 176 181 163 217 238 277 269 95 125 75 10 341 267 255 234 182 271 110 74 16 307 252 242
228 234 215 234 216 152 148 98 276 256 222 180 176 179 171 174 172 165 173 157 153 175 146 178 185 169 159 175 186 232 236 233 240 177 106 103 157 236 262 284 56 299 53 67 75 345 322 301 238
87 16 301 313 138 182 260 175 206 217 194 181 183 177 178 179 178 166 178 165 150 160 152 179 167 186 151 152 204 223 254 237 232 23 50 167 213 193 205 10 83 360 109 129 104 293 252 254 224
287 182 183 223 125 256 267 295 170 174 197 180 183 178 186 189 181 168 190 167 150 157 173 176 173 179 153 155 185 222 223 224 70 66 53 262 195 169 106 26 35 266 15 339 40 269 324 289 246
264 268 274 21 29 347 259 276 149 193 197 192 182 180 191 186 182 174 186 172 161 162 173 168 206 166 177 188 193 208 222 97 116 129 216 349 52 63 77 15 56 35 6 61 5 347 346 346 34
262 260 293 271 157 222 262 254 248 135 69 303 203 184 184 190 192 182 179 195 175 169 169 175 186 178 181 219 202 236 241 122 110 170 136 130 58 67 49 59 49 16 316 48 6 29 15 337 313
257 265 267 279 279 248 301 305 185 120 118 270 336 217 184 189 190 186 184 186 187 175 170 174 178 176 180 217 206 201 208 224 205 206 121 68 119 109 169 75 56 27 357 49 28 38 4 351 350
276 283 274 275 264 273 260 256 44 117 165 103 296 302 201 181 189 197 186 179 192 175 172 162 174 177 183 198 241 170 212 204 191 123 146 110 113 194 88 78 62 20 61 61 57 39 22 16 10
269 260 264 272 281 284 281 275 184 158 188 183 198 316 275 175 186 187 196 171 174 167 167 167 165 180 185 183 212 244 209 237 84 151 123 157 182 134 104 103 99 72 67 41 80 355 81 33 35
243 246 249 239 238 245 251 253 62 116 158 177 218 207 189 180 177 181 190 170 163 160 161 159 161 173 181 190 193 205 231 231 142 117 174 182 182 129 114 114 75 101 92 110 27 357 19 40 1
226 240 250 247 258 264 239 260 136 178 237 263 220 222 151 165 176 181 178 171 155 157 157 155 165 172 177 188 185 198 189 208 188 155 65 296 126 118 125 110 99 104 83 34 41 36 34 39 1
259 233 255 278 283 279 278 191 338 343 197 277 230 84 52 245 176 177 168 173 149 152 155 157 165 171 174 175 175 182 190 220 197 140 170 153 116 127 131 135 144 101 101 68 1 66 65 33 26
249 275 239 220 262 279 289 92 43 47 282 271 163 100 87 40 272 171 170 171 149 156 160 161 164 174 173 173 176 179 191 198 151 134 152 122 113 116 149 126 69 117 87 63 18 50 66 30 27
207 246 264 290 294 258 265 107 194 152 115 334 302 131 144 137 246 203 169 158 153 164 165 164 160 173 182 171 174 172 182 173 173 159 139 133 130 139 106 105 105 83 77 64 45 16 56 42 40
264 236 232 252 255 265 291 340 127 123 175 236 281 118 156 161 199 164 157 159 160 163 161 163 165 173 186 169 176 169 175 161 174 169 154 144 132 114 123 133 100 95 80 74 62 52 38 58 46